TimeEST,TemperatureF,Dew PointF,Humidity,Sea Level PressureIn,VisibilityMPH,Wind Direction,Wind SpeedMPH,Gust SpeedMPH,PrecipitationIn,Events,Conditions,WindDirDegrees,DateUTC
12:53 AM,53.1,41.0,64,30.04,10.0,NW,8.1,-,N/A,,Clear,320,2013-03-03 05:53:00
1:53 AM,53.1,41.0,64,30.01,10.0,NNW,4.6,-,N/A,,Mostly Cloudy,340,2013-03-03 06:53:00
2:53 AM,54.0,41.0,62,30.00,10.0,NNW,8.1,-,N/A,,Overcast,330,2013-03-03 07:53:00
3:53 AM,53.1,42.1,66,30.00,10.0,NNW,10.4,-,0.00,Rain,Light Rain,330,2013-03-03 08:53:00
4:53 AM,52.0,44.1,74,30.00,10.0,NW,6.9,-,0.00,Rain,Light Rain,310,2013-03-03 09:53:00
5:53 AM,52.0,45.0,77,30.01,10.0,West,5.8,-,0.00,Rain,Light Rain,280,2013-03-03 10:53:00
6:53 AM,53.1,44.1,71,30.02,10.0,NNW,6.9,-,0.00,,Overcast,330,2013-03-03 11:53:00
7:53 AM,54.0,43.0,66,30.03,10.0,NW,8.1,-,N/A,,Mostly Cloudy,320,2013-03-03 12:53:00
8:53 AM,57.0,42.1,57,30.04,10.0,NNW,10.4,-,N/A,,Partly Cloudy,330,2013-03-03 13:53:00
9:53 AM,60.1,42.1,51,30.05,10.0,NW,12.7,-,N/A,,Clear,310,2013-03-03 14:53:00
10:53 AM,61.0,43.0,52,30.07,10.0,NNW,12.7,-,N/A,,Partly Cloudy,340,2013-03-03 15:53:00
11:53 AM,61.0,41.0,48,30.05,10.0,WNW,8.1,-,N/A,,Clear,300,2013-03-03 16:53:00
12:53 PM,64.0,41.0,43,30.02,10.0,NW,17.3,23.0,N/A,,Clear,320,2013-03-03 17:53:00
1:53 PM,64.0,39.9,41,30.02,10.0,NW,12.7,24.2,N/A,,Mostly Cloudy,310,2013-03-03 18:53:00
2:53 PM,64.0,41.0,43,30.02,10.0,West,15.0,20.7,N/A,,Mostly Cloudy,280,2013-03-03 19:53:00
3:53 PM,63.0,39.9,43,30.02,10.0,West,15.0,23.0,N/A,,Scattered Clouds,280,2013-03-03 20:53:00
4:53 PM,64.0,39.9,41,30.04,10.0,West,17.3,24.2,N/A,,Mostly Cloudy,280,2013-03-03 21:53:00
5:53 PM,61.0,39.9,46,30.06,10.0,WNW,15.0,23.0,N/A,,Scattered Clouds,290,2013-03-03 22:53:00
6:53 PM,57.9,39.9,51,30.09,10.0,West,17.3,24.2,N/A,,Scattered Clouds,280,2013-03-03 23:53:00
7:53 PM,55.9,42.1,60,30.11,10.0,WNW,10.4,-,N/A,,Clear,290,2013-03-04 00:53:00
8:53 PM,54.0,43.0,66,30.14,10.0,West,9.2,-,N/A,,Clear,280,2013-03-04 01:53:00
9:53 PM,54.0,44.1,69,30.14,10.0,NW,11.5,-,N/A,,Clear,320,2013-03-04 02:53:00
10:53 PM,54.0,43.0,66,30.15,10.0,NW,12.7,20.7,N/A,,Clear,310,2013-03-04 03:53:00
11:53 PM,52.0,41.0,66,30.16,10.0,NNW,12.7,-,N/A,,Clear,330,2013-03-04 04:53:00